When you browse on this site, cookies collect data to enhance your experience and personalize the content and advertising you see.
Visit our Privacy Policy to learn more. By continuing to use the site, you agree to this use of cookies and data.
  • In Hungary
  • List of Countries
  • For 7 days
  • Water Temperature
  • Satellite Maps
  • Weather Map
  • News
  • Weather Widgets
  • user-avatar
    Login

    Hourly Weather Huancavelica

    Today, 21 January, Monday

    Time Temperature Precipitation Wind Pressure Humidity
    00:00 +4°C° 0 mm 1 mps 464 mmHg 96%
    01:00 +3°C° 0 mm 0 mps 463 mmHg 96%
    02:00 +3°C° 0 mm 0 mps 463 mmHg 96%
    03:00 +3°C° 0 mm 0 mps 463 mmHg 96%
    04:00 +2°C° 0 mm 0 mps 462 mmHg 96%
    05:00 +3°C° 0 mm 0 mps 463 mmHg 92%
    06:00 +4°C° 0 mm 0 mps 464 mmHg 87%
    07:00 +5°C° 0 mm 0 mps 465 mmHg 83%
    08:00 +8°C° 0 mm 1 mps 466 mmHg 74%
    09:00 +9°C° 0 mm 2 mps 467 mmHg 64%
    10:00 +11°C° 0 mm 3 mps 469 mmHg 54%
    11:00 +12°C° 0.2 mm 4 mps 469 mmHg 53%
    12:00 +12°C° 0.2 mm 4 mps 469 mmHg 53%
    13:00 +13°C° 0.2 mm 5 mps 469 mmHg 52%
    14:00 +13°C° 0.3 mm 5 mps 469 mmHg 53%
    15:00 +13°C° 0.3 mm 5 mps 469 mmHg 54%
    16:00 +13°C° 0.3 mm 5 mps 468 mmHg 54%
    17:00 +11°C° 0.2 mm 4 mps 467 mmHg 64%
    18:00 +8°C° 0.2 mm 4 mps 466 mmHg 74%
    19:00 +7°C° 0.2 mm 3 mps 465 mmHg 83%
    20:00 +6°C° 0 mm 2 mps 465 mmHg 87%
    21:00 +5°C° 0 mm 2 mps 465 mmHg 91%
    22:00 +6°C° 0 mm 1 mps 465 mmHg 95%
    23:00 +5°C° 0 mm 1 mps 464 mmHg 95%

    Tomorrow, 22 January, Tuesday

    Time Temperature Precipitation Wind Pressure Humidity
    00:00 +5°C° 0 mm 1 mps 464 mmHg 94%
    01:00 +4°C° 0 mm 1 mps 463 mmHg 94%
    02:00 +4°C° 0 mm 1 mps 463 mmHg 92%
    03:00 +3°C° 0 mm 0 mps 463 mmHg 91%
    04:00 +3°C° 0 mm 0 mps 462 mmHg 90%
    05:00 +3°C° 0 mm 0 mps 463 mmHg 85%
    06:00 +5°C° 0 mm 1 mps 464 mmHg 80%
    07:00 +6°C° 0 mm 1 mps 465 mmHg 76%
    08:00 +7°C° 0 mm 2 mps 466 mmHg 71%
    09:00 +8°C° 0 mm 3 mps 467 mmHg 67%
    10:00 +10°C° 0 mm 4 mps 468 mmHg 63%
    11:00 +10°C° 0.1 mm 4 mps 468 mmHg 62%
    12:00 +10°C° 0.1 mm 5 mps 468 mmHg 62%
    13:00 +10°C° 0.1 mm 5 mps 468 mmHg 62%
    14:00 +10°C° 0.1 mm 5 mps 467 mmHg 63%
    15:00 +9°C° 0.1 mm 5 mps 467 mmHg 65%
    16:00 +9°C° 0.1 mm 5 mps 466 mmHg 67%
    17:00 +8°C° 0 mm 4 mps 466 mmHg 73%
    18:00 +7°C° 0 mm 3 mps 465 mmHg 80%
    19:00 +5°C° 0 mm 3 mps 465 mmHg 86%
    20:00 +6°C° 0 mm 2 mps 465 mmHg 88%
    21:00 +5°C° 0 mm 2 mps 465 mmHg 90%
    22:00 +6°C° 0 mm 1 mps 465 mmHg 92%
    23:00 +6°C° 0 mm 1 mps 465 mmHg 92%

    Day after tomorrow, 23 January, Wednesday

    Time Temperature Precipitation Wind Pressure Humidity
    00:00 +5°C° 0 mm 1 mps 465 mmHg 91%
    01:00 +5°C° 0 mm 1 mps 464 mmHg 91%
    02:00 +5°C° 0 mm 1 mps 464 mmHg 92%
    03:00 +3°C° 0 mm 0 mps 463 mmHg 93%
    04:00 +3°C° 0 mm 0 mps 463 mmHg 94%
    05:00 +3°C° 0 mm 0 mps 463 mmHg 90%
    06:00 +4°C° 0 mm 0 mps 464 mmHg 87%
    07:00 +5°C° 0 mm 0 mps 465 mmHg 84%
    08:00 +7°C° 0 mm 1 mps 466 mmHg 77%
    09:00 +8°C° 0 mm 2 mps 467 mmHg 71%
    10:00 +10°C° 0 mm 3 mps 468 mmHg 64%
    11:00 +10°C° 0.1 mm 4 mps 468 mmHg 64%
    12:00 +11°C° 0.1 mm 4 mps 468 mmHg 63%
    13:00 +10°C° 0.1 mm 5 mps 468 mmHg 63%
    14:00 +10°C° 0.2 mm 5 mps 467 mmHg 64%
    15:00 +10°C° 0.2 mm 5 mps 467 mmHg 65%
    16:00 +9°C° 0.2 mm 5 mps 466 mmHg 67%
    17:00 +8°C° 0.3 mm 4 mps 466 mmHg 74%
    18:00 +7°C° 0.3 mm 4 mps 465 mmHg 81%
    19:00 +5°C° 0.3 mm 3 mps 464 mmHg 89%
    20:00 +6°C° 0.4 mm 2 mps 465 mmHg 90%
    21:00 +6°C° 0.4 mm 2 mps 465 mmHg 92%
    22:00 +6°C° 0.4 mm 1 mps 465 mmHg 93%
    23:00 +6°C° 0.2 mm 1 mps 465 mmHg 93%

    24 January, Thursday

    Time Temperature Precipitation Wind Pressure Humidity
    00:00 +6°C° 0.2 mm 1 mps 464 mmHg 94%
    01:00 +5°C° 0.2 mm 1 mps 464 mmHg 94%
    02:00 +4°C° 0.1 mm 0 mps 463 mmHg 93%
    03:00 +4°C° 0.1 mm 0 mps 463 mmHg 93%
    04:00 +4°C° 0.1 mm 0 mps 463 mmHg 93%
    05:00 +4°C° 0.1 mm 0 mps 464 mmHg 91%
    06:00 +5°C° 0.1 mm 0 mps 464 mmHg 89%
    07:00 +5°C° 0.1 mm 0 mps 465 mmHg 87%
    08:00 +8°C° 0.1 mm 1 mps 466 mmHg 81%
    09:00 +8°C° 0.1 mm 2 mps 467 mmHg 75%
    10:00 +10°C° 0.1 mm 3 mps 468 mmHg 69%
    11:00 +10°C° 0.2 mm 3 mps 468 mmHg 67%
    12:00 +11°C° 0.2 mm 4 mps 468 mmHg 65%
    13:00 +10°C° 0.2 mm 5 mps 468 mmHg 64%
    14:00 +10°C° 0.2 mm 5 mps 467 mmHg 65%
    15:00 +10°C° 0.2 mm 5 mps 467 mmHg 66%
    16:00 +10°C° 0.2 mm 5 mps 466 mmHg 67%
    17:00 +8°C° 0.4 mm 4 mps 466 mmHg 74%
    18:00 +8°C° 0.4 mm 3 mps 465 mmHg 82%
    19:00 +5°C° 0.4 mm 3 mps 464 mmHg 89%
    20:00 +6°C° 0.2 mm 2 mps 465 mmHg 91%
    21:00 +6°C° 0.2 mm 1 mps 465 mmHg 93%
    22:00 +6°C° 0.2 mm 1 mps 465 mmHg 95%
    23:00 +5°C° 0 mm 1 mps 464 mmHg 95%

    25 January, Friday

    Time Temperature Precipitation Wind Pressure Humidity
    00:00 +5°C° 0 mm 1 mps 464 mmHg 95%
    01:00 +4°C° 0 mm 1 mps 463 mmHg 94%
    02:00 +3°C° 0 mm 0 mps 463 mmHg 93%
    03:00 +3°C° 0 mm 0 mps 462 mmHg 92%
    04:00 +3°C° 0 mm 0 mps 462 mmHg 91%
    05:00 +4°C° 0 mm 0 mps 463 mmHg 87%
    06:00 +4°C° 0 mm 0 mps 464 mmHg 83%
    07:00 +5°C° 0 mm 0 mps 465 mmHg 79%
    08:00 +8°C° 0 mm 1 mps 466 mmHg 72%
    09:00 +9°C° 0 mm 2 mps 467 mmHg 65%
    10:00 +11°C° 0 mm 3 mps 469 mmHg 58%
    11:00 +12°C° 0.1 mm 4 mps 469 mmHg 57%
    12:00 +12°C° 0.1 mm 4 mps 469 mmHg 57%
    13:00 +13°C° 0.1 mm 5 mps 469 mmHg 56%
    14:00 +13°C° 0.2 mm 5 mps 468 mmHg 57%
    15:00 +12°C° 0.2 mm 5 mps 468 mmHg 58%
    16:00 +12°C° 0.2 mm 5 mps 467 mmHg 59%
    17:00 +11°C° 0.1 mm 4 mps 466 mmHg 67%
    18:00 +8°C° 0.1 mm 4 mps 466 mmHg 74%
    19:00 +7°C° 0.1 mm 3 mps 465 mmHg 81%
    20:00 +6°C° 0 mm 2 mps 465 mmHg 86%
    21:00 +6°C° 0 mm 1 mps 464 mmHg 91%
    22:00 +5°C° 0 mm 1 mps 464 mmHg 96%
    23:00 +5°C° 0 mm 1 mps 464 mmHg 94%

    26 January, Saturday

    Time Temperature Precipitation Wind Pressure Humidity
    00:00 +5°C° 0 mm 1 mps 464 mmHg 93%
    01:00 +4°C° 0 mm 0 mps 463 mmHg 92%
    02:00 +4°C° 0 mm 0 mps 463 mmHg 92%
    03:00 +4°C° 0 mm 0 mps 463 mmHg 92%
    04:00 +4°C° 0 mm 0 mps 462 mmHg 92%
    05:00 +4°C° 0 mm 0 mps 463 mmHg 88%
    06:00 +5°C° 0 mm 0 mps 464 mmHg 83%
    07:00 +6°C° 0 mm 0 mps 465 mmHg 79%
    08:00 +8°C° 0 mm 1 mps 466 mmHg 72%
    09:00 +9°C° 0 mm 3 mps 467 mmHg 65%
    10:00 +11°C° 0 mm 4 mps 468 mmHg 58%
    11:00 +12°C° 0.1 mm 4 mps 468 mmHg 55%
    12:00 +13°C° 0.1 mm 5 mps 469 mmHg 53%
    13:00 +14°C° 0.1 mm 5 mps 469 mmHg 50%
    14:00 +14°C° 0.2 mm 5 mps 468 mmHg 49%
    15:00 +14°C° 0.2 mm 5 mps 468 mmHg 49%
    16:00 +14°C° 0.2 mm 6 mps 468 mmHg 48%
    17:00 +12°C° 0.1 mm 5 mps 467 mmHg 58%
    18:00 +8°C° 0.1 mm 4 mps 466 mmHg 68%
    19:00 +7°C° 0.1 mm 3 mps 465 mmHg 79%
    20:00 +5°C° 0 mm 3 mps 464 mmHg 84%
    21:00 +6°C° 0 mm 2 mps 464 mmHg 89%
    22:00 +6°C° 0 mm 1 mps 464 mmHg 94%
    23:00 +5°C° 0 mm 1 mps 464 mmHg 93%
    Show more